STARLINK-31965, 59888

Orbit data source: Space-Track

STARLINK-31965, 59888 is a payload satellite owned by SpaceX/Seattle (US) in LEO that was launched on Tue, 28 May 2024 UTC via an FALCON 9 launch vehicle from the Air Force Eastern Test Range (AFETR). Payload-class satellites include a variety of spacecraft equipped with specific instruments for various scientific and technological missions. These include communications satellites like Starlink; space stations such as the ISS; scientific satellites like the Hubble; Earth observation satellites from companies like Planet Labs, Umbra, and HawkEye 360; GPS; miniature CubeSats for education and research; and military/defense satellites.

Loading next visibility...
Identifier
59888, 2024-100D
Orbit
LEO
Country
Flag of USUS
Related business
Manufacturer
SpaceX/Seattle
Mission
Operational spacecraft
Bus & Motor
STARLINK V2M, Unknown motor
Mass
730 kg wet, ~700 kg dry
Launch date (UTC)
2024-05-28 (1 year ago)
Launch vehicle
FALCON 9
Launch site
Air Force Eastern Test Range (AFETR)
Object type
Payload
Rocket body
Debris
Shape & HBR
Unknown
Radar Cross Section
Large (>1 m²)

Expand to show TLE details & history
Last TLE update: 23 hours ago

TLE from 23 hours ago
0 STARLINK-31965
1 59888U 24100D   25260.08150213 -.00002842  00000-0 -93829-4 0  9993
2 59888  43.0033  26.0239 0000798 263.1652  96.9109 15.27574564 74500
Epoch: 2025-09-17T01:57Z
TLE epoch observation values (Epoch: 2025-09-17T01:57:21.784Z)
Latitude
0.00001°
Longitude
0.42057°
Altitude
482.907 km
Speed
7.626 km/s
True Right ascension
01h 44m 05s
True Declination
0° 00' 00"
Sunlit
Object was in full shadow at epoch
Visualization orbit readout
Latitude
Unknown
Longitude
Unknown
Altitude
Unknown
Speed
Unknown
Apparent Right ascension
Unknown
Apparent Declination
Unknown
Sunlit
N/A
Visualization observer readout
Local Sidereal Time
17:34:07
Azimuth
Unknown
Elevation
Unknown
Doppler factor
Unknown
Orbital elements
Apogee altitude
485.558 km
Perigee altitude
484.462 km
Semi-major axis
6,863.147 km
Eccentricity
0.00008
Inclination
43.0033°
RAAN
26.0239°
Arg. of periapsis
263.1652°
True anomaly
96.91998°
Mean anomaly
96.9109°
Eccentric anomaly
96.91544°
Mean motion
3.81732 °/min
Orbital period
94.31 mins
BSTAR
-0.000093829
Loading maneuver chart data...
Computing Atmospheric mass density...
Loading historical data...
Loading historical data...
Loading historical data...
Loading historical data...
Loading historical data...
Loading historical data...
Loading historical data...

Documentation

Showing up to 5 results
|